Weather History for KBJC - March, 2013

Change the Weather History Date:

Wednesday, March 6, 2013

  Actual Average (KDEN) Record (KDEN)
Temperature  
Mean Temperature 42 °F 38 °F  
Max Temperature 59 °F 52 °F 75 °F (1972)
Min Temperature 24 °F 24 °F -7 °F (1943)
Degree Days  
Heating Degree Days 24 27  
Month to date heating degree days 169  
Since 1 July heating degree days 4608  
Cooling Degree Days 0 0  
Month to date cooling degree days 0  
Year to date cooling degree days 0  
Moisture  
Dew Point 21 °F    
Average Humidity 59    
Maximum Humidity 80    
Minimum Humidity 10    
Precipitation  
Precipitation 0.00 in 0.03 in 1.32 in (1990)
Month to date precipitation 0.12  
Year to date precipitation 0.90  
Snow  
Snow 0.00 in - - ()
Month to date snowfall  
Since 1 July snowfall  
Snow Depth -    
Sea Level Pressure  
Sea Level Pressure 29.97 in    
Wind  
Wind Speed 2 mph (NW)    
Max Wind Speed 10 mph    
Max Gust Speed -    
Visibility 11 miles    
Events      
T = Trace of Precipitation, MM = Missing Value Source: NWS Daily Summary

Daily Weather History Graph

Daily Weather History Graph

Search for Another Location

Airport or City:

Trip Planner

Search our weather history database for the weather conditions in past years. The results will help you decide how hot, cold, wet, or windy it might be!

Date:

Astronomy

Mar. 06, 2013 Rise Set
Actual Time 6:25 AM MST 5:58 PM MST
Civil Twilight 5:58 AM MST 6:25 PM MST
Nautical Twilight 5:27 AM MST 6:56 PM MST
Astronomical Twilight 4:55 AM MST 7:27 PM MST
Moon 2:36 AM MST (3/6) 12:43 PM MST (3/6)
Length of Visible Light 12h 26m
Length of Day
11h 32m
Waning Crescent, 29% of the Moon is Illuminated
Mar 6
Waning Crescent
Mar 11
New
Mar 19
First Quarter
Mar 27
Full
Apr 2
Last Quarter

Hourly Weather History & Observations

Time (MST) Temp. Windchill Dew Point Humidity Pressure Visibility Wind Dir Wind Speed Gust Speed Precip Events Conditions
12:12 AM 28.4 °F 24.6 °F 19.4 °F 69% 30.10 in 10.0 mi NNW 3.5 mph - N/A   Clear
12:36 AM 26.6 °F - 19.4 °F 74% 30.10 in 10.0 mi Calm Calm - N/A   Clear
12:56 AM 28.4 °F - 19.4 °F 69% 30.10 in 10.0 mi Calm Calm - N/A   Clear
1:14 AM 30.2 °F - 21.2 °F 69% 30.10 in 10.0 mi Calm Calm - N/A   Clear
1:33 AM 30.2 °F - 21.2 °F 69% 30.10 in 10.0 mi Calm Calm - N/A   Clear
1:56 AM 26.6 °F 22.6 °F 21.2 °F 80% 30.08 in 10.0 mi West 3.5 mph - N/A   Clear
2:15 AM 28.4 °F - 21.2 °F 74% 30.08 in 10.0 mi Calm Calm - N/A   Clear
2:35 AM 28.4 °F - 21.2 °F 74% 30.06 in 10.0 mi Calm Calm - N/A   Clear
2:53 AM 26.6 °F 21.2 °F 19.4 °F 74% 30.06 in 10.0 mi SW 4.6 mph - N/A   Clear
3:16 AM 26.6 °F 22.6 °F 19.4 °F 74% 30.05 in 10.0 mi WSW 3.5 mph - N/A   Clear
3:35 AM 24.8 °F 17.9 °F 19.4 °F 80% 30.04 in 10.0 mi SW 5.8 mph - N/A   Clear
3:54 AM 24.8 °F - 19.4 °F 80% 30.04 in 10.0 mi Calm Calm - N/A   Clear
4:10 AM 26.6 °F - 19.4 °F 74% 30.04 in 10.0 mi Calm Calm - N/A   Clear
4:36 AM 26.6 °F - 19.4 °F 74% 30.04 in 10.0 mi Calm Calm - N/A   Clear
5:48 AM 26.6 °F 22.6 °F 19.4 °F 74% 30.02 in 30.0 mi West 3.5 mph - N/A   Mostly Cloudy
6:50 AM 24.8 °F - 17.6 °F 74% 30.01 in 30.0 mi Calm Calm - N/A   Mostly Cloudy
7:48 AM 28.4 °F - 21.2 °F 74% 30.01 in 20.0 mi Calm Calm - N/A   Mostly Cloudy
8:50 AM 30.2 °F - 23.0 °F 75% 30.01 in 40.0 mi Calm Calm - N/A   Scattered Clouds
9:50 AM 35.6 °F - 24.8 °F 65% 30.00 in 40.0 mi Calm Calm - N/A   Scattered Clouds
10:47 AM 37.4 °F 33.8 °F 24.8 °F 60% 29.99 in 40.0 mi North 4.6 mph - N/A   Scattered Clouds
11:53 AM 44.6 °F - 23.0 °F 43% 29.97 in 40.0 mi Calm Calm - N/A   Partly Cloudy
12:49 PM 48.2 °F - 21.2 °F 34% 29.93 in 12.0 mi NNE 3.5 mph - N/A   Partly Cloudy
1:47 PM 53.6 °F - 17.6 °F 24% 29.90 in 15.0 mi NNE 4.6 mph - N/A   Partly Cloudy
2:48 PM 57.2 °F - 19.4 °F 23% 29.87 in 25.0 mi NE 8.1 mph - N/A   Scattered Clouds
3:49 PM 59.0 °F - 1.4 °F 10% 29.86 in 30.0 mi East 5.8 mph - N/A   Scattered Clouds
4:53 PM 57.2 °F - 3.2 °F 11% 29.85 in 30.0 mi East 5.8 mph - N/A   Scattered Clouds
5:57 PM 51.8 °F - 10.4 °F 19% 29.84 in 30.0 mi Variable 3.5 mph - N/A   Partly Cloudy
6:50 PM 46.4 °F 41.9 °F 24.8 °F 43% 29.85 in 30.0 mi NW 9.2 mph - N/A   Partly Cloudy
7:53 PM 41.0 °F 35.2 °F 24.8 °F 53% 29.85 in 30.0 mi NW 9.2 mph - N/A   Partly Cloudy
8:48 PM 41.0 °F 34.7 °F 24.8 °F 53% 29.85 in 30.0 mi NW 10.4 mph - N/A   Clear
9:47 PM 37.4 °F 33.8 °F 26.6 °F 65% 29.85 in 30.0 mi West 4.6 mph - N/A   Clear
10:09 PM 39.2 °F - 26.6 °F 61% 29.86 in 10.0 mi Calm Calm - N/A   Clear
10:35 PM 41.0 °F 35.2 °F 24.8 °F 53% 29.85 in 10.0 mi NNW 9.2 mph - N/A   Clear
11:11 PM 41.0 °F - 28.4 °F 61% 29.85 in 10.0 mi Calm Calm - N/A   Clear
11:35 PM 41.0 °F - 28.4 °F 61% 29.87 in 10.0 mi Calm Calm - N/A   Clear
11:54 PM 37.4 °F 34.9 °F 28.4 °F 70% 29.87 in 10.0 mi NNW 3.5 mph - N/A   Clear